Regional Weather Roundup
Issued by NWS

Home | Current Version | Previous Version | Text Only | Print | Product List | Glossary Off
Versions: 1 2 3 4 5 6 7 8 9 10 11 12 13 14 15 16 17 18 19 20 21 22 23 24 25 26 27 28 29 30 31 32 33 34 35 36 37 38 39 40 41 42 43 44 45 46 47 48 49 50

468
ASUS43 KMPX 220610
RWRMN
WEATHER ROUNDUP FOR MINNESOTA
NATIONAL WEATHER SERVICE TWIN CITIES/CHANHASSEN MN
100 AM CDT FRI MAY 22 2015


NOTE: "FAIR" INDICATES FEW OR NO CLOUDS BELOW 12,000 FEET WITH NO
SIGNIFICANT WEATHER AND/OR OBSTRUCTIONS TO VISIBILITY. N/A MEANS
CURRENT SKY AND/OR WEATHER CONDITIONS ARE NOT AVAILABLE.

MNZ060>063-068>070-220700-
   Twin Cities Metro

CITY           SKY/WX    TMP DP  RH WIND       PRES   REMARKS
TWIN CITIES    CLEAR     54  39  57 NW7       30.10R
6HR MIN TEMP:  53; 6HR MAX TEMP:  71;

ST PAUL        CLEAR     49  42  77 CALM      30.11R
CRYSTAL        CLEAR     51  38  60 CALM      30.10R
BLAINE         CLEAR     48  37  66 CALM      30.10S
LAKEVILLE      CLEAR     48  37  66 CALM      30.10R
EDEN PRAIRIE   CLEAR     53  38  56 N7        30.09S
6HR MIN TEMP:  53; 6HR MAX TEMP:  70;

SOUTH ST PAUL  CLEAR     57  34  41 NW3       30.10R
LAKE ELMO      FAIR      54  36  50 N5        30.10R
$$
MNZ001>005-007-008-013>017-022>024-027-028-220700-
   Northwest Minnesota

CITY           SKY/WX    TMP DP  RH WIND       PRES   REMARKS
BEMIDJI        CLEAR     39  34  81 CALM      30.13R
HALLOCK        CLEAR     46  39  76 CALM      30.12S
ROSEAU         CLEAR     45  36  70 CALM      30.12S
WARROAD        CLEAR     43  37  81 CALM      30.13R
THIEF RVR FALL CLEAR     46  36  66 CALM      30.14S
CROOKSTON      CLEAR     54  34  47 E5        30.14S
FOSSTON        CLEAR     43  36  75 CALM      30.14S
DETROIT LAKES  CLEAR     52  37  58 NW3       30.15S
MOORHEAD       CLEAR     50  39  66 CALM      30.14S
PARK RAPIDS    CLEAR     45  37  73 NW3       30.12S
MAHNOMEN       FAIR      48  39  71 CALM      30.14R
$$
MNZ006-009>011-018-025>026-220700-
   North Central Minnesota

CITY           SKY/WX    TMP DP  RH WIND       PRES   REMARKS
BAUDETTE       CLEAR     41  38  89 CALM      30.12R
FLAG ISLAND    CLEAR     52  43  71 CALM      30.10S
INTL FALLS     CLEAR     35  33  92 CALM      30.11R
6HR MIN TEMP:  34; 6HR MAX TEMP:  61;

WASKISH        CLEAR     39  37  93 CALM      30.13R
BIG FORK       CLEAR     37  34  87 CALM      30.12R
LONGVILLE      CLEAR     39  37  93 CALM      30.12S
GRAND RAPIDS   CLEAR     41  30  65 CALM      30.12R
CRANE LAKE     CLEAR     32  30  93 CALM      30.13S
ORR            CLEAR     39  34  81 CALM      30.09R
COOK           CLEAR     37  32  81 CALM      30.11S
WALKER         FAIR      41  37  86 CALM      30.13R
$$
MNZ012-019>021-037-220700-
   Northeast Minnesota

CITY           SKY/WX    TMP DP  RH WIND       PRES   REMARKS
DULUTH         CLEAR     49  30  48 NW6       30.11R
6HR MIN TEMP:  49; 6HR MAX TEMP:  65;

ELY            CLEAR     36  28  75 CALM      30.11R
HIBBING        CLEAR     36  30  79 CALM      30.11R
EVELETH        CLEAR     36  32  87 CALM      30.12R
DULUTH HARBOR  CLEAR     54  32  43 CALM      30.11R
TWO HARBORS    CLEAR     50  34  53 CALM      30.09R
SILVER BAY     CLEAR     39  30  70 CALM      30.09R
GRAND MARAIS     N/A     40  32  73 NE3       30.11R
G MARAIS ARPRT CLEAR     36  21  55 N5        30.10R
$$
MNZ029>031-032-039>041-046>048-054>057-064-220700-
   West Central Minnesota

CITY           SKY/WX    TMP DP  RH WIND       PRES   REMARKS
FERGUS FALLS   CLEAR     54  37  54 NE5       30.15R
WHEATON        CLEAR     46  39  76 CALM      30.16S
MORRIS         CLEAR     52  37  58 N3        30.13R
ALEXANDRIA     CLEAR     50  36  58 CALM      30.15R
ELBOW LAKE     FAIR      52  38  58 N5        30.13S
WADENA         CLEAR     46  37  71 CALM      30.13S
GLENWOOD       CLEAR     52  37  58 NW5       30.14R
APPLETON       CLEAR     50  39  66 CALM      30.14R
BENSON         CLEAR     48  39  71 CALM      30.14R
ORTONVILLE     CLEAR     52  39  62 CALM      30.15R
MADISON        CLEAR     46  36  66 W5        30.15R
WILLMAR        FAIR      52  39  62 CALM      30.14S
$$
MNZ033>034-036-042>043-049>051-058-059-220700-
   Central Minnesota

CITY           SKY/WX    TMP DP  RH WIND       PRES   REMARKS
ST CLOUD       CLEAR     46  40  79 NW3       30.12R
6HR MIN TEMP:  44; 6HR MAX TEMP:  69;

SAUK CENTRE    FAIR      47  38  71 CALM      30.14R
PAYNESVILLE    CLEAR     43  37  79 CALM      30.14R
AITKIN         CLEAR     39  36  87 CALM      30.11R
PINE RIVER     CLEAR     41  37  87 CALM      30.16R
BRAINERD       CLEAR     44  40  85 CALM      30.13R
STAPLES        CLEAR     45  37  76 CALM      30.13S
LONG PRAIRIE   FAIR      45  37  76 CALM      30.14R
LITTLE FALLS   CLEAR     41  37  87 CALM      30.13R
LITCHFIELD     CLEAR     54  37  54 CALM      30.13R
BUFFALO        CLEAR     49  41  75 CALM      30.13R
MAPLE LAKE     CLEAR     47  43  86 CALM      30.13R
$$
MNZ037-044-045-052-053-220700-
   East Central Minnesota

CITY           SKY/WX    TMP DP  RH WIND       PRES   REMARKS
PRINCETON      CLEAR     45  37  76 CALM      30.12R
MORA           CLEAR     50  32  50 N3        30.13R
CAMBRIDGE      CLEAR     54  37  54 CALM      30.09S
RUSH CITY      CLEAR     52  33  48 N3        30.11R
MOOSE LAKE     CLEAR     43  32  65 CALM      30.09S
HINCKLEY       FAIR      50  34  53 N5        30.11R
CLOQUET        CLEAR     43  30  61 NW3       30.11R
MCGREGOR       CLEAR     43  34  70 CALM      30.13R
$$
MNZ071>073-080-081-089-090-097-098-220700-
   Southwest Minnesota

CITY           SKY/WX    TMP DP  RH WIND       PRES   REMARKS
MONTEVIDEO     CLEAR     54  36  50 N3        30.15R
GRANITE FALLS  CLEAR     50  36  59 NW3       30.16R
CANBY          CLEAR     44  36  73 W3        30.17R
MARSHALL       CLEAR     50  30  46 W5        30.15R
REDWOOD FALLS  CLEAR     54  36  50 NW7       30.13R
OLIVIA         CLEAR     46  34  61 CALM      30.13R
PIPESTONE      CLEAR     52  36  54 NE3       30.16R
WINDOM         CLEAR     48  34  57 CALM      30.15R
WORTHINGTON    CLEAR     46  28  49 NW3       30.16R
JACKSON        CLEAR     50  30  46 NW5       30.15S
TRACY          CLEAR     55  32  42 W6        30.16R
SLAYTON        CLEAR     48  34  59 CALM      30.16S
$$
MNZ065>067-074>077-082>085-091>093-220700-
   South Central Minnesota

CITY           SKY/WX    TMP DP  RH WIND       PRES   REMARKS
MANKATO        CLEAR     54  32  43 W3        30.12R
NEW ULM        CLEAR     50  34  53 W6        30.13R
ST JAMES       CLEAR     50  34  53 W7        30.14R
FAIRMONT       CLEAR     52  30  43 NW6       30.13S
GLENCOE        CLEAR     53  41  63 NW3       30.12R
FARIBAULT      CLEAR     45  41  87 CALM      30.11S
OWATONNA       CLEAR     45  36  70 CALM      30.12R
WASECA         CLEAR     45  34  65 CALM      30.13R
ALBERT LEA     CLEAR     48  39  71 CALM      30.12R
$$
MNZ078>079-086>088-094>096-220700-
   Southeast Minnesota

CITY           SKY/WX    TMP DP  RH WIND       PRES   REMARKS
ROCHESTER      CLEAR     50  32  50 NW8       30.11R
6HR MIN TEMP:  50; 6HR MAX TEMP:  69;

RED WING       CLEAR     48  39  71 CALM      30.08S
STANTON        CLEAR     46  37  71 S3        30.10R
DODGE CENTER   CLEAR     54  32  43 NW3       30.11R
WINONA         CLEAR     50  41  71 CALM      30.08R
AUSTIN         CLEAR     48  39  71 CALM      30.11R
PRESTON        CLEAR     49  34  54 NW5       30.10R
$$
ABBREVIATIONS USED IN REMARKS
   TC - TEMPERATURES IN CELSIUS
  WCI - WIND CHILL INDEX
   HX - HEAT INDEX
  VSB - VISIBILITY
$$



USA.gov is the U.S. government's official web portal to all federal, state and local government web resources and services.